[[{"header":{"parameterUnit":"m.s-1","parameterCategory":1,"la1":30.2991,"la2":30.254,"lo1":-89.0895,"lo2":-89.0444,"dy":0.0017,"dx":0.0017,"nx":28,"ny":28,"refTime":"2024-03-12T09:00:00:Z","depth":0,"parameterNumber":2,"parameterNumberName":"U-component_of_WINDS"},"data":[0,0,0,0,0,0,0,0,0,0,0,0,0,0,0,0,0,0,0,0,0,0,0,0,0,0,0,0,0,0,0,0,0,0,0,0,0,0,0,0,0,0,0,0,0,0,0,0,0,0,0,0,0,0,0,0,0,0,-1.1432,-1.1433,0,-1.1493,-1.1493,-1.1494,-1.1518,-1.1518,-1.1518,-1.1518,-1.1581,-1.1582,-1.1584,0,0,0,0,0,0,0,0,0,0,0,0,0,-1.1338,-1.134,-1.1432,-1.1433,-1.1433,-1.1492,-1.1493,-1.1494,-1.1518,-1.1518,-1.1518,-1.1517,-1.158,-1.1582,-1.1584,0,0,0,0,0,0,0,0,0,0,0,0,0,-1.1387,-1.134,-1.1432,-1.1452,-1.1455,-1.1492,-1.1493,-1.1494,-1.1518,-1.1518,-1.1518,-1.1517,-1.1579,-1.1582,-1.1585,-1.1606,0,0,-1.1593,-1.1594,0,0,0,0,0,0,0,0,-1.1384,-1.139,-1.1449,-1.1451,-1.1454,-1.1497,-1.1483,-1.1532,-1.1518,-1.1494,-1.1518,-1.1517,-1.1553,-1.1558,-1.157,-1.1609,-1.1612,-1.1593,-1.1595,-1.1596,-1.1597,0,0,0,0,0,0,0,-1.1381,-1.1388,-1.1456,-1.1449,-1.1453,-1.1459,-1.1466,-1.1493,-1.1524,-1.1496,-1.1498,-1.1505,-1.1555,-1.1567,-1.1572,-1.1613,-1.1593,-1.1596,-1.1597,-1.1598,-1.1673,-1.1674,0,0,0,0,0,0,-1.1374,-1.1385,-1.1454,-1.1458,-1.1418,-1.1461,-1.1468,-1.1484,-1.1524,-1.153,-1.1505,-1.1506,-1.1563,-1.1568,-1.1574,-1.1602,-1.1596,-1.1599,-1.16,-1.1673,-1.1674,-1.1674,0,0,0,0,0,0,-1.1372,-1.138,-1.1452,-1.1422,-1.1431,-1.1463,-1.148,-1.1485,-1.1498,-1.1531,-1.1537,-1.1512,-1.1563,-1.157,-1.1598,-1.1605,-1.16,-1.1602,-1.1673,-1.1673,-1.1674,-1.1658,0,0,0,0,0,0,-1.1369,-1.1379,-1.1387,-1.1422,-1.1433,-1.1474,-1.148,-1.1486,-1.1502,-1.1504,-1.1539,-1.1544,-1.1563,-1.1594,-1.1601,-1.1608,-1.1605,-1.1672,-1.1673,-1.1674,-1.1658,-1.1658,-1.1658,0,0,0,0,0,-1.1365,-1.138,-1.1387,-1.1395,-1.1444,-1.1474,-1.1481,-1.1502,-1.1503,-1.1511,-1.1533,-1.1543,-1.1603,-1.1597,-1.1605,-1.1613,-1.1672,-1.1673,-1.1674,-1.1658,-1.1658,-1.1658,0,0,0,0,0,0,-1.1346,-1.1385,-1.1393,-1.142,-1.1444,-1.1478,-1.149,-1.1501,-1.1525,-1.1526,-1.1551,-1.1559,-1.1585,-1.1602,-1.1594,-1.1636,-1.1638,-1.1641,-1.1624,-1.1624,-1.1624,-1.1619,-1.1607,0,0,0,0,0,-1.1344,-1.1365,-1.1399,-1.1419,-1.1431,-1.1458,-1.1473,-1.1487,-1.1512,-1.1523,-1.1546,-1.1571,-1.1595,-1.1611,-1.1635,-1.1661,-1.1669,-1.1671,-1.1671,-1.167,-1.1672,-1.1688,-1.1689,-1.1676,-1.1676,-1.1676,0,0,-1.1342,-1.1366,-1.1378,-1.1416,-1.1436,-1.1458,-1.1467,-1.1489,-1.1506,-1.1526,-1.1554,-1.1572,-1.1602,-1.1629,-1.1642,-1.1644,-1.1677,-1.1671,-1.1671,-1.1673,-1.1689,-1.169,-1.1691,-1.1677,-1.1677,-1.1677,0,0,-1.1349,-1.1369,-1.1388,-1.1408,-1.1438,-1.1456,-1.1461,-1.1494,-1.1507,-1.1535,-1.1551,-1.1571,-1.1613,-1.1633,-1.1649,-1.1664,-1.1675,-1.1671,-1.167,-1.1685,-1.1686,-1.1687,-1.1692,-1.1694,-1.1673,-1.1673,-1.1673,0,-1.1342,-1.1375,-1.1397,-1.1419,-1.1435,-1.1454,-1.1474,-1.1492,-1.1529,-1.154,-1.1542,-1.1594,-1.1615,-1.1648,-1.1651,-1.1664,-1.167,-1.1667,-1.1684,-1.1685,-1.1686,-1.1692,-1.1694,-1.1672,-1.1672,-1.1672,-1.1672,0,-1.1365,-1.1388,-1.14,-1.1434,-1.1452,-1.1473,-1.1498,-1.1514,-1.1527,-1.1545,-1.1574,-1.16,-1.163,-1.1639,-1.1651,-1.1673,-1.1673,-1.1679,-1.1681,-1.1687,-1.1692,-1.1694,-1.1671,-1.1671,-1.1672,-1.1672,0,0,-1.1361,-1.1407,-1.1411,-1.1427,-1.1462,-1.148,-1.1502,-1.1531,-1.1544,-1.1569,-1.1588,-1.1623,-1.1629,-1.1647,-1.1662,-1.1675,-1.1685,-1.1679,-1.168,-1.1679,-1.1711,-1.1706,-1.1708,-1.1693,-1.1693,-1.1693,-1.1708,0,-1.1372,-1.1412,-1.1432,-1.1463,-1.1484,-1.1503,-1.1522,-1.1546,-1.1564,-1.1585,-1.1605,-1.1629,-1.1635,-1.1646,-1.1659,-1.1681,-1.1692,-1.168,-1.1711,-1.1712,-1.1702,-1.1711,-1.1706,-1.1718,-1.171,-1.1711,-1.1711,0,-1.1391,-1.1415,-1.1447,-1.148,-1.149,-1.1506,-1.1535,-1.1555,-1.1582,-1.1594,-1.1614,-1.1629,-1.1654,-1.1655,-1.1689,-1.168,-1.1694,-1.1707,-1.1708,-1.1711,-1.1711,-1.1714,-1.1723,-1.1724,-1.1715,-1.1714,-1.1714,0,-1.1384,-1.1425,-1.145,-1.1463,-1.1501,-1.1513,-1.153,-1.1557,-1.1573,-1.1598,-1.1609,-1.1636,-1.1652,-1.1673,-1.1695,-1.1694,-1.1727,-1.173,-1.1738,-1.1737,-1.1744,-1.1743,-1.1754,-1.1753,-1.1753,-1.1753,-1.1753,0,-1.1394,-1.1414,-1.1447,-1.1463,-1.1485,-1.1509,-1.153,-1.1549,-1.1573,-1.1592,-1.1611,-1.1629,-1.1657,-1.1679,-1.1696,-1.1722,-1.1729,-1.1739,-1.1744,-1.1738,-1.1736,-1.1747,-1.1747,-1.1753,-1.1753,-1.1753,-1.1753,0,-1.1391,-1.1414,-1.1442,-1.1477,-1.1486,-1.1501,-1.153,-1.1546,-1.1565,-1.1589,-1.1596,-1.1626,-1.1653,-1.1677,-1.1713,-1.1725,-1.175,-1.1756,-1.1741,-1.1743,-1.175,-1.1749,-1.1769,-1.1772,-1.1768,-1.1768,-1.1768,0,-1.1396,-1.1411,-1.1447,-1.1461,-1.1477,-1.15,-1.1516,-1.154,-1.1557,-1.159,-1.1602,-1.1629,-1.1653,-1.1695,-1.172,-1.1747,-1.1754,-1.1759,-1.1758,-1.1751,-1.1754,-1.1752,-1.1754,-1.1758,-1.1758,-1.1758,-1.1758,0,-1.1402,-1.1413,-1.1436,-1.1463,-1.1482,-1.1505,-1.1528,-1.1538,-1.1567,-1.1585,-1.1612,-1.163,-1.1667,-1.1694,-1.1724,-1.1742,-1.1755,-1.1758,-1.1761,-1.1755,-1.1746,-1.1751,-1.174,-1.1757,-1.1757,-1.1757,-1.1757,-1.1757,-1.1403,-1.1417,-1.1445,-1.147,-1.149,-1.1511,-1.1528,-1.1548,-1.1571,-1.1602,-1.1615,-1.1643,-1.1671,-1.1712,-1.173,-1.1753,-1.1755,-1.176,-1.1761,-1.1762,-1.1761,-1.1742,-1.1758,-1.1758,-1.1758,-1.1758,-1.1758,0,-1.141,-1.1429,-1.1452,-1.1483,-1.1503,-1.1513,-1.1539,-1.1555,-1.1579,-1.1604,-1.1626,-1.1658,-1.1685,-1.1712,-1.174,-1.1753,-1.176,-1.176,-1.1759,-1.1763,-1.1757,-1.1751,-1.1754,-1.1754,-1.1754,-1.1754,-1.1754,-1.1754,-1.1416,-1.1441,-1.1455,-1.1491,-1.1509,-1.1536,-1.155,-1.157,-1.159,-1.1624,-1.1646,-1.1664,-1.1689,-1.172,-1.1745,-1.1753,-1.1762,-1.1761,-1.177,-1.1763,-1.1763,-1.1763,-1.1758,-1.1762,-1.1763,-1.1774,-1.1774,-1.1774]},{"header":{"parameterUnit":"m.s-1","parameterCategory":1,"la1":30.2991,"la2":30.254,"lo1":-89.0895,"lo2":-89.0444,"dy":0.0017,"dx":0.0017,"nx":28,"ny":28,"refTime":"2024-03-12T09:00:00:Z","depth":0,"parameterNumber":3,"parameterNumberName":"V-component_of_WINDS"},"data":[0,0,0,0,0,0,0,0,0,0,0,0,0,0,0,0,0,0,0,0,0,0,0,0,0,0,0,0,0,0,0,0,0,0,0,0,0,0,0,0,0,0,0,0,0,0,0,0,0,0,0,0,0,0,0,0,0,0,-0.0248,-0.0248,0,-0.021,-0.0209,-0.0209,-0.0204,-0.0204,-0.0205,-0.0205,-0.0167,-0.0166,-0.0164,0,0,0,0,0,0,0,0,0,0,0,0,0,-0.0318,-0.0317,-0.0248,-0.0248,-0.0247,-0.021,-0.0209,-0.0209,-0.0204,-0.0204,-0.0205,-0.0205,-0.0167,-0.0166,-0.0164,0,0,0,0,0,0,0,0,0,0,0,0,0,-0.0284,-0.0316,-0.0248,-0.024,-0.0239,-0.021,-0.0209,-0.0209,-0.0204,-0.0204,-0.0205,-0.0206,-0.0168,-0.0166,-0.0164,-0.014,0,0,-0.0158,-0.0157,0,0,0,0,0,0,0,0,-0.0286,-0.0282,-0.0242,-0.0241,-0.0239,-0.0212,-0.022,-0.0186,-0.0204,-0.0217,-0.0205,-0.0206,-0.0182,-0.0179,-0.017,-0.0139,-0.0137,-0.0158,-0.0156,-0.0155,-0.0155,0,0,0,0,0,0,0,-0.0289,-0.0284,-0.0233,-0.0241,-0.024,-0.0239,-0.0235,-0.0213,-0.0197,-0.0216,-0.0216,-0.0211,-0.0181,-0.0172,-0.0169,-0.0136,-0.0158,-0.0156,-0.0155,-0.0154,-0.0084,-0.0083,0,0,0,0,0,0,-0.0292,-0.0285,-0.0234,-0.0232,-0.0265,-0.0237,-0.0232,-0.022,-0.0197,-0.0194,-0.0211,-0.0211,-0.0175,-0.0172,-0.0168,-0.0139,-0.0156,-0.0154,-0.0152,-0.0084,-0.0083,-0.0083,0,0,0,0,0,0,-0.0294,-0.0288,-0.0236,-0.0258,-0.0252,-0.0235,-0.0222,-0.0219,-0.021,-0.0193,-0.019,-0.0205,-0.0176,-0.0171,-0.0147,-0.0137,-0.0153,-0.0151,-0.0085,-0.0084,-0.0083,-0.008,0,0,0,0,0,0,-0.0296,-0.0288,-0.0279,-0.0258,-0.0251,-0.0215,-0.0221,-0.0218,-0.0207,-0.0207,-0.0186,-0.0184,-0.0176,-0.015,-0.0145,-0.0135,-0.0149,-0.0086,-0.0085,-0.0083,-0.0081,-0.0079,-0.0078,0,0,0,0,0,-0.0298,-0.028,-0.0279,-0.0272,-0.0238,-0.0215,-0.021,-0.0201,-0.0206,-0.0196,-0.0185,-0.0184,-0.0139,-0.0148,-0.0142,-0.0131,-0.0086,-0.0085,-0.0084,-0.0082,-0.008,-0.0078,0,0,0,0,0,0,-0.03,-0.0277,-0.0275,-0.0249,-0.0234,-0.0214,-0.0202,-0.0199,-0.0182,-0.0183,-0.0173,-0.0169,-0.0145,-0.0136,-0.0146,-0.0107,-0.0113,-0.0111,-0.0114,-0.0112,-0.011,-0.0113,-0.0148,0,0,0,0,0,-0.0298,-0.028,-0.0261,-0.024,-0.0232,-0.0218,-0.0208,-0.0202,-0.0186,-0.0179,-0.0166,-0.0151,-0.0133,-0.0122,-0.0105,-0.008,-0.0075,-0.0069,-0.0068,-0.0066,-0.0064,-0.005,-0.0047,-0.0078,-0.0078,-0.0078,0,0,-0.0292,-0.0277,-0.0267,-0.024,-0.0227,-0.0209,-0.0213,-0.0194,-0.0181,-0.0177,-0.0153,-0.0143,-0.0126,-0.0101,-0.009,-0.0092,-0.0055,-0.0064,-0.0063,-0.0062,-0.0048,-0.0046,-0.0043,-0.0077,-0.0077,-0.0077,0,0,-0.0273,-0.026,-0.0241,-0.0228,-0.0209,-0.02,-0.0195,-0.0175,-0.0169,-0.0145,-0.0142,-0.0126,-0.0096,-0.0083,-0.0073,-0.0049,-0.0047,-0.0044,-0.0035,-0.0021,-0.0019,-0.0017,-0.0008,-0.0006,-0.0042,-0.0041,-0.0041,0,-0.0269,-0.0241,-0.0232,-0.0213,-0.0201,-0.0196,-0.0177,-0.0165,-0.0142,-0.0134,-0.0137,-0.0099,-0.0087,-0.0059,-0.0053,-0.0045,-0.004,-0.0046,-0.002,-0.0018,-0.0016,-0.0007,-0.0004,-0.0041,-0.0041,-0.0041,-0.0041,0,-0.0237,-0.0218,-0.0205,-0.0182,-0.0169,-0.015,-0.0138,-0.0126,-0.0122,-0.0112,-0.0089,-0.0073,-0.0053,-0.0046,-0.0042,-0.0018,-0.0021,-0.0022,-0.0028,-0.0012,-0.0005,-0.0002,-0.0041,-0.0041,-0.0041,-0.0041,0,0,-0.0218,-0.019,-0.0185,-0.0175,-0.0153,-0.0138,-0.012,-0.0099,-0.0089,-0.0073,-0.0057,-0.0032,-0.0033,-0.0021,-0.0015,-0.0003,0.0014,-0.0006,-0.0006,-0.0003,0.0041,0.0042,0.0045,0.0016,0.0016,0.0017,0.0039,0,-0.0197,-0.0162,-0.0153,-0.0124,-0.0107,-0.0102,-0.0085,-0.0071,-0.0061,-0.0045,-0.0035,-0.0017,-0.002,-0.0013,-0.0001,0.001,0.0023,0.0008,0.003,0.0031,0.0025,0.0049,0.005,0.0071,0.0042,0.0043,0.0043,0,-0.0167,-0.015,-0.0119,-0.01,-0.0092,-0.0077,-0.0058,-0.0043,-0.0026,-0.002,-0.0007,-0.0002,0.0017,0.001,0.0037,0.0027,0.0036,0.0043,0.0044,0.0046,0.0038,0.0052,0.0078,0.0081,0.0048,0.0048,0.0048,0,-0.0156,-0.0126,-0.0103,-0.0095,-0.0071,-0.0061,-0.0051,-0.0035,-0.0023,-0.0006,0.0001,0.002,0.003,0.0044,0.0054,0.0048,0.008,0.0073,0.0085,0.0084,0.0091,0.009,0.0118,0.0097,0.0097,0.0097,0.0097,0,-0.0134,-0.0115,-0.0098,-0.0085,-0.0064,-0.0054,-0.0033,-0.0023,-0.0009,0.0007,0.0012,0.0027,0.0039,0.0055,0.0062,0.0083,0.0088,0.0093,0.0094,0.0092,0.0091,0.0098,0.0097,0.0098,0.0098,0.0098,0.0098,0,-0.0118,-0.0106,-0.0082,-0.0062,-0.0056,-0.0042,-0.0025,-0.0012,-0.0002,0.0018,0.0023,0.0037,0.0056,0.0068,0.0091,0.0096,0.012,0.0121,0.0114,0.0115,0.0125,0.0124,0.0159,0.0164,0.014,0.014,0.014,0,-0.0105,-0.009,-0.0069,-0.0058,-0.0047,-0.003,-0.0018,-0.0007,0.0005,0.0025,0.0036,0.0056,0.0072,0.0102,0.0114,0.0132,0.0134,0.0145,0.0137,0.0134,0.0134,0.0133,0.0134,0.0146,0.0146,0.0146,0.0147,0,-0.0082,-0.0076,-0.0059,-0.004,-0.0026,-0.0011,0.0005,0.0013,0.0027,0.004,0.006,0.0072,0.0097,0.0116,0.0135,0.0145,0.0148,0.0149,0.0153,0.015,0.0146,0.0148,0.0118,0.0148,0.0148,0.0148,0.0148,0.0148,-0.0067,-0.0054,-0.0037,-0.0018,-0.0005,0.0009,0.0023,0.0034,0.0051,0.0072,0.0077,0.0098,0.0114,0.014,0.0151,0.0167,0.0165,0.017,0.0171,0.0172,0.0173,0.0143,0.017,0.017,0.017,0.017,0.017,0,-0.0044,-0.0032,-0.0015,0.0006,0.0021,0.0023,0.004,0.0052,0.007,0.0086,0.0102,0.0124,0.0143,0.0157,0.0176,0.0186,0.0187,0.019,0.0189,0.0192,0.0173,0.0168,0.0189,0.0189,0.0189,0.0189,0.0189,0.0188,-0.003,-0.0008,-0.0001,0.0028,0.0039,0.0059,0.0069,0.0082,0.0094,0.0119,0.0135,0.0144,0.0159,0.0179,0.0196,0.02,0.0206,0.0209,0.0212,0.0195,0.0193,0.0191,0.0186,0.021,0.021,0.0229,0.0229,0.023]}]]